Regional Weather Roundup
Issued by NWS Northern Indiana

Home | Current Version | Previous Version | Text Only | Print | Product List | Glossary On
Versions: 1 2 3 4 5 6 7 8 9 10 11 12 13 14 15 16 17 18 19 20 21 22 23 24 25 26 27 28 29 30 31 32 33 34 35 36 37 38 39 40 41 42 43 44 45 46 47 48 49 50
000
ASUS43 KIWX 230800
RWRIWX

KIWX WEATHER ROUNDUP
NATIONAL WEATHER SERVICE NORTHERN INDIANA
300 AM EST THU NOV 23 2017

NOTE: "FAIR" INDICATES FEW OR NO CLOUDS BELOW 12,000 FEET WITH NO
SIGNIFICANT WEATHER AND/OR OBSTRUCTIONS TO VISIBILITY.

* THESE STATIONS ARE NOT UNDER NWS QUALITY CONTROL. THEY ALSO MAY NOT
  REPORT WEATHER SUCH AS PRECIPITATION OR FOG.

INZ001>027-230900-
NORTHERN INDIANA

CITY           SKY/WX    TMP DP  RH WIND       PRES   REMARKS
MICHIGAN CITY* CLOUDY    32  19  59 SW6       30.18S WCI  26
KNOX*          CLOUDY    30  23  74 CALM      30.18S
SOUTH BEND     CLOUDY    29  20  69 SW7       30.18S WCI  22
GOSHEN         CLOUDY    30  21  69 SW6       30.17S WCI  24
MONTICELLO*    CLOUDY    30  23  77 S3        30.18F
WARSAW*        CLOUDY    30  21  69 SW3       30.17S
AUBURN*        CLOUDY    30  23  74 CALM      30.18S
FORT WAYNE     CLOUDY    30  26  85 SW7       30.18F WCI  23
PERU/GRISSOM   CLOUDY    29  28  92 SW5       30.17F WCI  24

$$
INZ028>050-230900-
CENTRAL INDIANA

CITY           SKY/WX    TMP DP  RH WIND       PRES   REMARKS
LAFAYETTE      CLOUDY    29  26  89 CALM      30.19F
KOKOMO*        CLOUDY    30  26  85 S5        30.19F WCI  25
MUNCIE*        MOCLDY    30  23  75 S5        30.19S WCI  25
INDIANAPOLIS   CLOUDY    29  23  78 SW3       30.21R

$$
MIZ043>046-050>051-056>058-064>065-071>073-077>080-230900-
SOUTHWEST LOWER MICHIGAN

CITY           SKY/WX    TMP DP  RH WIND       PRES   REMARKS
BATTLE CREEK   CLOUDY    30  20  66 SW12      30.14F WCI  20
BENTON HARBOR  CLOUDY    32  18  56 S8        30.15F WCI  25
COLDWATER*     CLOUDY    31  21  67 SW6       30.15F WCI  25
HILLSDALE*     CLOUDY    30  21  69 S5        30.14S WCI  25
HOLLAND        CLOUDY    36  24  62 W14       30.12F
GRAND RAPIDS   CLOUDY    32  24  72 SW10      30.10F WCI  24
KALAMAZOO      CLOUDY    31  18  58 SW7       30.15F WCI  24
STURGIS*       CLOUDY    29  23  77 SW5       30.15F WCI  24
THREE RIVERS*  CLOUDY    31  21  64 SW6       30.16S WCI  26

$$
OHZ001>008-015>018-024>025-230900-
NORTHWEST OHIO

CITY           SKY/WX    TMP DP  RH WIND       PRES   REMARKS
DEFIANCE       CLOUDY    29  23  78 SW3       30.19S
FINDLAY        CLOUDY    29  23  78 S6        30.18F WCI  23
TOLEDO EXPRESS CLOUDY    29  23  78 S3        30.18F
TOLEDO METCALF PTCLDY    27  22  81 S5        30.20F WCI  22
LIMA           MOCLDY    27  22  81 S6        30.18F WCI  20

$$
AND FOR LAKE MICHIGAN COASTAL AND OPEN LAKE BUOY OBSERVATIONS

STATION/POSITION TEMP    WIND        PRES    VSBY  WAVE
                 AIR SEA DIR/SP/G                  HT/PER
                 (F)     (DEG/KT/KT) (MB)    (MI)  (FT/S)
CALUMET HARBOR    32     220/  6/ 10 1020.8R
MICHIGAN CITY     31     180/  8/  9   N/A
BURNS HARBOR      32     210/  7/  9 1022.0F
SAINT JOSEPH      33     180/  6/  9 1021.3
SOUTH LAKE BUOY   36 47  280/ 16/ 19 1021.1          3/ 4

$$
&&




USA.gov is the U.S. government's official web portal to all federal, state and local government web resources and services.